Location: Forest
(37.3641°N, 79.2902°W)
Time: 00:38:36
(UTC+00:00)

Hubble Space Telescope - Pass Details

Date: 27 January 2026
Orbit: 478 x 480 km, 28.5° (Epoch: 10 February)

Event Time Altitude Azimuth Distance (km) Brightness Sun altitude
Rises 23:13:53 0° 240° (WSW) 2,510 6.2 -7.9°
Reaches altitude 10° 23:16:29 10° 223° (SW) 1,634 4.3 -8.4°
Maximum altitude 23:19:17 20° 175° (S) 1,148 2.6 -8.9°
Drops below altitude 10° 23:22:06 10° 127° (SE) 1,637 2.9 -9.4°
Enters shadow 23:23:09 - 118° (ESE) 1,973 3.2 -9.6°
